Time,TemperatureF,DewpointF,PressureIn,WindDirection,WindDirectionDegrees,WindSpeedMPH,WindSpeedGustMPH,Humidity,HourlyPrecipIn,Conditions,Clouds,dailyrainin,SoftwareType,DateUTC
2013-01-27 00:03:00,25.0,18.0,30.39,North,0,0.0,0.0,74,0.00,,,0.06,,2013-01-27 05:03:00,
2013-01-27 00:12:00,25.0,18.0,30.39,North,0,0.0,0.0,74,0.00,,,0.06,,2013-01-27 05:12:00,
2013-01-27 00:22:00,25.0,18.0,30.39,North,0,0.0,0.0,74,0.00,,,0.06,,2013-01-27 05:22:00,
2013-01-27 00:32:00,24.0,17.0,30.40,North,0,0.0,0.0,75,0.00,,,0.06,,2013-01-27 05:32:00,
2013-01-27 00:41:00,24.0,17.0,30.40,North,0,0.0,0.0,75,0.00,,,0.06,,2013-01-27 05:41:00,
2013-01-27 00:52:00,24.0,17.0,30.40,North,0,0.0,0.0,75,0.00,,,0.06,,2013-01-27 05:52:00,
2013-01-27 01:02:00,24.0,18.0,30.41,North,0,0.0,0.0,76,0.00,,,0.06,,2013-01-27 06:02:00,
2013-01-27 01:11:00,24.0,18.0,30.41,North,0,0.0,0.0,76,0.00,,,0.06,,2013-01-27 06:11:00,
2013-01-27 01:21:00,24.0,18.0,30.40,North,0,0.0,0.0,76,0.00,,,0.06,,2013-01-27 06:21:00,
2013-01-27 01:32:00,24.0,18.0,30.41,North,0,0.0,0.0,76,0.00,,,0.06,,2013-01-27 06:32:00,
2013-01-27 01:42:00,24.0,18.0,30.41,North,0,0.0,0.0,76,0.00,,,0.06,,2013-01-27 06:42:00,
2013-01-27 01:52:00,24.0,18.0,30.42,North,0,0.0,0.0,77,0.00,,,0.06,,2013-01-27 06:52:00,
2013-01-27 02:01:00,24.0,18.0,30.42,North,0,0.0,0.0,76,0.00,,,0.06,,2013-01-27 07:01:00,
2013-01-27 02:14:00,24.0,18.0,30.42,North,0,0.0,0.0,76,0.00,,,0.06,,2013-01-27 07:14:00,
2013-01-27 02:21:00,23.0,17.0,30.43,North,0,0.0,0.0,77,0.00,,,0.06,,2013-01-27 07:21:00,
2013-01-27 02:32:00,23.0,17.0,30.43,North,0,0.0,0.0,77,0.00,,,0.06,,2013-01-27 07:32:00,
2013-01-27 02:42:00,23.0,17.0,30.43,North,0,0.0,0.0,77,0.00,,,0.06,,2013-01-27 07:42:00,
2013-01-27 02:52:00,23.0,17.0,30.43,North,0,0.0,0.0,78,0.00,,,0.06,,2013-01-27 07:52:00,
2013-01-27 03:01:00,23.0,17.0,30.44,East,90,0.0,0.0,78,0.00,,,0.06,,2013-01-27 08:01:00,
2013-01-27 03:11:00,23.0,17.0,30.44,East,90,0.0,0.0,78,0.00,,,0.06,,2013-01-27 08:11:00,
2013-01-27 03:22:00,23.0,17.0,30.44,East,90,0.0,0.0,79,0.00,,,0.06,,2013-01-27 08:22:00,
2013-01-27 03:32:00,22.0,16.0,30.44,East,90,0.0,0.0,79,0.00,,,0.06,,2013-01-27 08:32:00,
2013-01-27 03:42:00,22.0,16.0,30.44,East,90,0.0,0.0,79,0.00,,,0.06,,2013-01-27 08:42:00,
2013-01-27 03:52:00,22.0,17.0,30.44,North,0,0.0,0.0,80,0.00,,,0.06,,2013-01-27 08:52:00,
2013-01-27 04:02:00,22.0,17.0,30.44,North,0,0.0,0.0,80,0.00,,,0.06,,2013-01-27 09:02:00,
2013-01-27 04:11:00,22.0,17.0,30.44,North,0,0.0,0.0,80,0.00,,,0.06,,2013-01-27 09:11:00,
2013-01-27 04:21:00,22.0,17.0,30.44,North,0,0.0,0.0,80,0.00,,,0.06,,2013-01-27 09:21:00,
2013-01-27 04:32:00,23.0,18.0,30.44,North,0,0.0,0.0,80,0.00,,,0.06,,2013-01-27 09:32:00,
2013-01-27 04:41:00,23.0,18.0,30.44,North,0,0.0,0.0,80,0.00,,,0.06,,2013-01-27 09:41:00,
2013-01-27 04:52:00,23.0,18.0,30.45,NNE,22,0.0,0.0,81,0.00,,,0.06,,2013-01-27 09:52:00,
2013-01-27 05:01:00,23.0,18.0,30.44,NNE,22,0.0,0.0,80,0.00,,,0.06,,2013-01-27 10:01:00,
2013-01-27 05:11:00,23.0,18.0,30.45,NNE,22,0.0,0.0,80,0.00,,,0.06,,2013-01-27 10:11:00,
2013-01-27 05:21:00,23.0,18.0,30.45,NNE,22,0.0,0.0,80,0.00,,,0.06,,2013-01-27 10:21:00,
2013-01-27 05:32:00,23.0,18.0,30.45,NNE,22,0.0,0.0,81,0.00,,,0.06,,2013-01-27 10:32:00,
2013-01-27 05:42:00,23.0,18.0,30.45,NNE,22,0.0,0.0,81,0.00,,,0.06,,2013-01-27 10:42:00,
2013-01-27 05:51:00,24.0,19.0,30.45,NNE,22,0.0,0.0,81,0.00,,,0.06,,2013-01-27 10:51:00,
2013-01-27 06:01:00,24.0,19.0,30.46,NNE,22,0.0,0.0,81,0.00,,,0.06,,2013-01-27 11:01:00,
2013-01-27 06:11:00,24.0,19.0,30.45,NNE,22,0.0,0.0,81,0.00,,,0.06,,2013-01-27 11:11:00,
2013-01-27 06:21:00,24.0,19.0,30.45,NNE,22,0.0,0.0,81,0.00,,,0.06,,2013-01-27 11:21:00,
2013-01-27 06:32:00,24.0,19.0,30.47,NNE,22,0.0,0.0,81,0.00,,,0.06,,2013-01-27 11:32:00,
2013-01-27 06:42:00,24.0,19.0,30.47,NNE,22,0.0,0.0,81,0.00,,,0.06,,2013-01-27 11:42:00,
2013-01-27 06:52:00,24.0,19.0,30.47,NNE,22,0.0,0.0,81,0.00,,,0.06,,2013-01-27 11:52:00,
2013-01-27 07:02:00,24.0,19.0,30.47,NNE,22,0.0,0.0,82,0.00,,,0.06,,2013-01-27 12:02:00,
2013-01-27 07:12:00,24.0,19.0,30.47,NNE,22,0.0,0.0,82,0.00,,,0.06,,2013-01-27 12:12:00,
2013-01-27 07:21:00,24.0,19.0,30.49,NNE,22,0.0,0.0,82,0.00,,,0.06,,2013-01-27 12:21:00,
2013-01-27 07:32:00,24.0,19.0,30.49,NNE,22,0.0,0.0,82,0.00,,,0.06,,2013-01-27 12:32:00,
2013-01-27 07:42:00,24.0,19.0,30.49,NNE,22,0.0,0.0,82,0.00,,,0.06,,2013-01-27 12:42:00,
2013-01-27 07:52:00,24.0,19.0,30.50,NNE,22,0.0,0.0,82,0.00,,,0.06,,2013-01-27 12:52:00,
2013-01-27 08:02:00,24.0,19.0,30.51,NNE,22,0.0,0.0,81,0.00,,,0.06,,2013-01-27 13:02:00,
2013-01-27 08:11:00,24.0,19.0,30.51,NNE,22,0.0,0.0,81,0.00,,,0.06,,2013-01-27 13:11:00,
2013-01-27 08:22:00,23.0,18.0,30.51,NNE,22,0.0,0.0,81,0.00,,,0.06,,2013-01-27 13:22:00,
2013-01-27 08:32:00,24.0,19.0,30.52,NNE,22,0.0,0.0,81,0.00,,,0.06,,2013-01-27 13:32:00,
2013-01-27 08:42:00,24.0,19.0,30.52,NNE,22,0.0,0.0,81,0.00,,,0.06,,2013-01-27 13:42:00,
2013-01-27 08:52:00,24.0,19.0,30.53,NNE,22,0.0,0.0,82,0.00,,,0.06,,2013-01-27 13:52:00,
2013-01-27 09:02:00,24.0,19.0,30.53,NNE,22,0.0,0.0,82,0.00,,,0.06,,2013-01-27 14:02:00,
2013-01-27 09:12:00,24.0,19.0,30.53,NNE,22,0.0,0.0,82,0.00,,,0.06,,2013-01-27 14:12:00,
2013-01-27 09:22:00,26.0,21.0,30.55,West,270,0.0,0.0,82,0.00,,,0.06,,2013-01-27 14:22:00,
2013-01-27 09:32:00,26.0,21.0,30.55,SE,135,0.0,0.0,82,0.00,,,0.06,,2013-01-27 14:32:00,
2013-01-27 09:43:00,26.0,21.0,30.55,SE,135,0.0,0.0,82,0.00,,,0.06,,2013-01-27 14:43:00,
2013-01-27 09:53:00,28.0,23.0,30.55,West,270,0.0,0.0,80,0.00,,,0.06,,2013-01-27 14:53:00,
2013-01-27 10:02:00,28.0,22.0,30.55,West,270,0.0,0.0,79,0.00,,,0.06,,2013-01-27 15:02:00,
2013-01-27 10:12:00,28.0,22.0,30.55,West,270,0.0,0.0,79,0.00,,,0.06,,2013-01-27 15:12:00,
2013-01-27 10:22:00,29.0,23.0,30.55,North,0,0.0,0.0,77,0.00,,,0.06,,2013-01-27 15:22:00,
2013-01-27 10:32:00,30.0,23.0,30.55,SSW,202,0.0,0.0,75,0.00,,,0.02,,2013-01-27 15:32:00,
2013-01-27 10:42:00,30.0,23.0,30.55,SSW,202,0.0,0.0,75,0.00,,,0.02,,2013-01-27 15:42:00,
2013-01-27 10:52:00,31.0,24.0,30.55,ESE,112,0.0,0.0,74,0.00,,,0.02,,2013-01-27 15:52:00,
2013-01-27 11:03:00,32.0,24.0,30.55,ENE,67,0.0,0.0,72,0.00,,,0.02,,2013-01-27 16:03:00,
2013-01-27 11:12:00,32.0,24.0,30.55,ENE,67,0.0,0.0,72,0.00,,,0.02,,2013-01-27 16:12:00,
2013-01-27 11:22:00,32.0,23.0,30.55,North,0,2.0,2.0,70,0.00,,,0.02,,2013-01-27 16:22:00,
2013-01-27 11:32:00,34.0,25.0,30.55,WSW,247,0.0,0.0,68,0.00,,,0.00,,2013-01-27 16:32:00,
2013-01-27 11:42:00,34.0,25.0,30.55,WSW,247,0.0,0.0,68,0.00,,,0.00,,2013-01-27 16:42:00,
2013-01-27 11:52:00,34.0,24.0,30.55,West,270,0.0,0.0,67,0.00,,,0.00,,2013-01-27 16:52:00,
2013-01-27 12:02:00,35.0,24.0,30.53,WSW,247,0.0,0.0,65,0.00,,,0.00,,2013-01-27 17:02:00,
2013-01-27 12:12:00,35.0,24.0,30.53,WSW,247,0.0,0.0,65,0.00,,,0.00,,2013-01-27 17:12:00,
2013-01-27 12:22:00,36.0,25.0,30.52,West,270,0.0,0.0,64,0.00,,,0.00,,2013-01-27 17:22:00,
2013-01-27 12:32:00,37.0,25.0,30.52,NNW,337,0.0,0.0,62,0.00,,,0.00,,2013-01-27 17:32:00,
2013-01-27 12:42:00,37.0,25.0,30.52,NNW,337,0.0,0.0,62,0.00,,,0.00,,2013-01-27 17:42:00,
2013-01-27 12:52:00,37.0,25.0,30.52,SSW,202,0.0,1.0,62,0.00,,,0.00,,2013-01-27 17:52:00,
2013-01-27 13:02:00,38.0,25.0,30.50,SE,124,1.0,1.0,58,0.00,,,0.00,,2013-01-27 18:02:00,
2013-01-27 13:12:00,38.0,25.0,30.50,SE,124,1.0,1.0,58,0.00,,,0.00,,2013-01-27 18:12:00,
2013-01-27 13:22:00,38.0,25.0,30.50,West,270,0.0,0.0,58,0.00,,,0.00,,2013-01-27 18:22:00,
2013-01-27 13:32:00,38.0,25.0,30.49,SE,135,0.0,0.0,58,0.00,,,0.00,,2013-01-27 18:32:00,
2013-01-27 13:42:00,38.0,25.0,30.49,SE,135,0.0,0.0,58,0.00,,,0.00,,2013-01-27 18:42:00,
2013-01-27 13:52:00,38.0,24.0,30.48,West,270,2.0,3.0,57,0.00,,,0.00,,2013-01-27 18:52:00,
2013-01-27 14:02:00,39.0,25.0,30.48,West,270,0.0,0.0,56,0.00,,,0.00,,2013-01-27 19:02:00,
2013-01-27 14:12:00,39.0,25.0,30.48,West,270,0.0,0.0,56,0.00,,,0.00,,2013-01-27 19:12:00,
2013-01-27 14:22:00,40.0,25.0,30.48,West,270,0.0,1.0,55,0.00,,,0.00,,2013-01-27 19:22:00,
2013-01-27 14:32:00,40.0,25.0,30.48,West,276,2.0,3.0,55,0.00,,,0.00,,2013-01-27 19:32:00,
2013-01-27 14:42:00,40.0,25.0,30.48,West,276,2.0,3.0,55,0.00,,,0.00,,2013-01-27 19:42:00,
2013-01-27 14:52:00,41.0,26.0,30.48,SE,135,0.0,0.0,55,0.00,,,0.00,,2013-01-27 19:52:00,
2013-01-27 15:03:00,41.0,26.0,30.47,WNW,292,0.0,0.0,54,0.00,,,0.00,,2013-01-27 20:03:00,
2013-01-27 15:12:00,41.0,26.0,30.47,WNW,292,0.0,0.0,54,0.00,,,0.00,,2013-01-27 20:12:00,
2013-01-27 15:22:00,40.0,24.0,30.47,West,270,0.0,0.0,53,0.00,,,0.00,,2013-01-27 20:22:00,
2013-01-27 15:33:00,40.0,24.0,30.47,SSW,202,0.0,0.0,53,0.00,,,0.00,,2013-01-27 20:33:00,
2013-01-27 15:42:00,40.0,24.0,30.47,SSW,202,0.0,0.0,53,0.00,,,0.00,,2013-01-27 20:42:00,
2013-01-27 15:52:00,40.0,24.0,30.46,WNW,292,0.0,0.0,53,0.00,,,0.00,,2013-01-27 20:52:00,
2013-01-27 16:02:00,39.0,23.0,30.46,SW,225,0.0,0.0,53,0.00,,,0.00,,2013-01-27 21:02:00,
2013-01-27 16:12:00,39.0,23.0,30.46,SW,225,0.0,0.0,53,0.00,,,0.00,,2013-01-27 21:12:00,
2013-01-27 16:22:00,39.0,23.0,30.46,South,180,0.0,0.0,53,0.00,,,0.00,,2013-01-27 21:22:00,
2013-01-27 16:33:00,39.0,23.0,30.46,ENE,67,0.0,0.0,53,0.00,,,0.00,,2013-01-27 21:33:00,
2013-01-27 16:42:00,39.0,23.0,30.46,ENE,67,0.0,0.0,53,0.00,,,0.00,,2013-01-27 21:42:00,
2013-01-27 16:52:00,39.0,23.0,30.47,NW,315,0.0,0.0,53,0.00,,,0.00,,2013-01-27 21:52:00,
2013-01-27 17:02:00,39.0,23.0,30.47,West,270,0.0,0.0,53,0.00,,,0.00,,2013-01-27 22:02:00,
2013-01-27 17:12:00,39.0,23.0,30.47,West,270,0.0,0.0,53,0.00,,,0.00,,2013-01-27 22:12:00,
2013-01-27 17:22:00,38.0,23.0,30.47,North,0,0.0,0.0,54,0.00,,,0.00,,2013-01-27 22:22:00,
2013-01-27 17:32:00,37.0,22.0,30.47,North,0,0.0,0.0,55,0.00,,,0.00,,2013-01-27 22:32:00,
2013-01-27 17:42:00,37.0,22.0,30.47,North,0,0.0,0.0,55,0.00,,,0.00,,2013-01-27 22:42:00,
2013-01-27 17:52:00,36.0,22.0,30.47,North,0,0.0,0.0,56,0.00,,,0.00,,2013-01-27 22:52:00,
2013-01-27 18:02:00,36.0,22.0,30.48,North,0,0.0,0.0,57,0.00,,,0.00,,2013-01-27 23:02:00,
2013-01-27 18:12:00,36.0,22.0,30.48,North,0,0.0,0.0,57,0.00,,,0.00,,2013-01-27 23:12:00,
2013-01-27 18:22:00,35.0,22.0,30.47,North,0,0.0,0.0,58,0.00,,,0.00,,2013-01-27 23:22:00,
2013-01-27 18:32:00,35.0,22.0,30.48,North,0,0.0,0.0,59,0.00,,,0.00,,2013-01-27 23:32:00,
2013-01-27 18:42:00,35.0,22.0,30.48,North,0,0.0,0.0,59,0.00,,,0.00,,2013-01-27 23:42:00,
2013-01-27 18:53:00,34.0,22.0,30.48,North,0,0.0,0.0,60,0.00,,,0.00,,2013-01-27 23:53:00,
2013-01-27 19:02:00,34.0,22.0,30.49,NE,45,0.0,0.0,62,0.00,,,0.00,,2013-01-28 00:02:00,
2013-01-27 19:12:00,34.0,22.0,30.49,NE,45,0.0,0.0,62,0.00,,,0.00,,2013-01-28 00:12:00,
2013-01-27 19:21:00,33.0,21.0,30.49,NE,45,0.0,0.0,62,0.00,,,0.00,,2013-01-28 00:21:00,
2013-01-27 19:32:00,33.0,22.0,30.48,NE,45,0.0,0.0,63,0.00,,,0.00,,2013-01-28 00:32:00,
2013-01-27 19:42:00,33.0,22.0,30.48,NE,45,0.0,0.0,63,0.00,,,0.00,,2013-01-28 00:42:00,
2013-01-27 19:51:00,33.0,22.0,30.47,NE,45,0.0,0.0,64,0.00,,,0.00,,2013-01-28 00:51:00,
2013-01-27 20:02:00,32.0,22.0,30.48,NE,45,0.0,0.0,65,0.00,,,0.00,,2013-01-28 01:02:00,
2013-01-27 20:11:00,32.0,22.0,30.48,NE,45,0.0,0.0,65,0.00,,,0.00,,2013-01-28 01:11:00,
2013-01-27 20:22:00,32.0,22.0,30.48,NE,45,0.0,0.0,65,0.00,,,0.00,,2013-01-28 01:22:00,
2013-01-27 20:33:00,32.0,22.0,30.48,NE,45,0.0,0.0,66,0.00,,,0.00,,2013-01-28 01:33:00,
2013-01-27 20:42:00,32.0,22.0,30.48,NE,45,0.0,0.0,66,0.00,,,0.00,,2013-01-28 01:42:00,
2013-01-27 20:52:00,32.0,22.0,30.47,NE,45,0.0,0.0,67,0.00,,,0.00,,2013-01-28 01:52:00,
2013-01-27 21:02:00,31.0,22.0,30.47,NE,45,0.0,0.0,68,0.00,,,0.00,,2013-01-28 02:02:00,
2013-01-27 21:11:00,31.0,22.0,30.47,NE,45,0.0,0.0,68,0.00,,,0.00,,2013-01-28 02:11:00,
2013-01-27 21:22:00,31.0,22.0,30.47,NE,45,0.0,0.0,69,0.00,,,0.00,,2013-01-28 02:22:00,
2013-01-27 21:32:00,31.0,22.0,30.48,NE,45,0.0,0.0,69,0.00,,,0.00,,2013-01-28 02:32:00,
2013-01-27 21:42:00,31.0,22.0,30.48,NE,45,0.0,0.0,69,0.00,,,0.00,,2013-01-28 02:42:00,
2013-01-27 21:52:00,31.0,22.0,30.48,NE,45,0.0,0.0,69,0.00,,,0.00,,2013-01-28 02:52:00,
2013-01-27 22:02:00,31.0,22.0,30.47,NE,45,0.0,0.0,70,0.00,,,0.00,,2013-01-28 03:02:00,
2013-01-27 22:12:00,31.0,22.0,30.47,NE,45,0.0,0.0,70,0.00,,,0.00,,2013-01-28 03:12:00,
2013-01-27 22:22:00,31.0,22.0,30.47,NE,45,0.0,0.0,70,0.00,,,0.00,,2013-01-28 03:22:00,
2013-01-27 22:32:00,31.0,23.0,30.47,NE,45,0.0,0.0,71,0.00,,,0.00,,2013-01-28 03:32:00,
2013-01-27 22:42:00,31.0,23.0,30.47,NE,45,0.0,0.0,71,0.00,,,0.00,,2013-01-28 03:42:00,
2013-01-27 22:53:00,30.0,22.0,30.46,NE,45,0.0,0.0,71,0.00,,,0.00,,2013-01-28 03:53:00,
2013-01-27 23:02:00,30.0,22.0,30.46,NE,45,0.0,0.0,71,0.00,,,0.00,,2013-01-28 04:02:00,
2013-01-27 23:12:00,30.0,22.0,30.46,NE,45,0.0,0.0,71,0.00,,,0.00,,2013-01-28 04:12:00,
2013-01-27 23:22:00,30.0,22.0,30.45,NE,45,0.0,0.0,72,0.00,,,0.00,,2013-01-28 04:22:00,
2013-01-27 23:32:00,30.0,22.0,30.45,NE,45,0.0,0.0,73,0.00,,,0.00,,2013-01-28 04:32:00,
2013-01-27 23:42:00,30.0,22.0,30.45,NE,45,0.0,0.0,73,0.00,,,0.00,,2013-01-28 04:42:00,
2013-01-27 23:52:00,30.0,22.0,30.47,NE,45,0.0,0.0,73,0.00,,,0.00,,2013-01-28 04:52:00,